Estación de C. Llollinco
Ultimos registro cada 15 minutos 75
| N° | Estación | Fecha / Hora | Temperatura | Humedad | Lluvia | Velocidad | Dirección | Radiación | Presion |
| 75 | C. Llollinco | 04-05-2026 18:30 | 12,3 | 96,1 | 0,6 | 0 | 0 | 0 | 0 |
| 74 | C. Llollinco | 04-05-2026 18:15 | 12,4 | 95,8 | 1 | 0 | 44 | 0 | 0 |
| 73 | C. Llollinco | 04-05-2026 18:00 | 12,6 | 95,4 | 0,1 | 0 | 231 | 1 | 0 |
| 72 | C. Llollinco | 04-05-2026 17:45 | 12,8 | 95 | 0 | 0 | 0 | 4 | 0 |
| 71 | C. Llollinco | 04-05-2026 17:30 | 13,1 | 94,2 | 0 | 0 | 0 | 10 | 0 |
| 70 | C. Llollinco | 04-05-2026 17:15 | 13,3 | 93,2 | 0 | 0 | 0 | 20 | 0 |
| 69 | C. Llollinco | 04-05-2026 17:00 | 13,3 | 93,3 | 0 | 0 | 0 | 49 | 0 |
| 68 | C. Llollinco | 04-05-2026 16:45 | 13,3 | 93,4 | 0 | 0 | 60 | 68 | 0 |
| 67 | C. Llollinco | 04-05-2026 16:30 | 13,2 | 94,3 | 0 | 0 | 0 | 91 | 0 |
| 66 | C. Llollinco | 04-05-2026 16:15 | 13,1 | 94,2 | 0 | 0 | 0 | 44 | 0 |
| 65 | C. Llollinco | 04-05-2026 16:00 | 13 | 93,9 | 0 | 0 | 82 | 48 | 0 |
| 64 | C. Llollinco | 04-05-2026 15:45 | 13 | 93,7 | 0 | 0 | 0 | 59 | 0 |
| 63 | C. Llollinco | 04-05-2026 15:30 | 13 | 93,7 | 0 | 0 | 0 | 73 | 0 |
| 62 | C. Llollinco | 04-05-2026 15:15 | 12,9 | 93 | 0 | 0 | 0 | 89 | 0 |
| 61 | C. Llollinco | 04-05-2026 15:00 | 12,6 | 93,3 | 0 | 0,1 | 70 | 79 | 0 |
| 60 | C. Llollinco | 04-05-2026 14:45 | 12,4 | 93,1 | 0 | 0,4 | 28 | 79 | 0 |
| 59 | C. Llollinco | 04-05-2026 14:30 | 12,3 | 93,3 | 0 | 0,6 | 20 | 72 | 0 |
| 58 | C. Llollinco | 04-05-2026 14:15 | 12,2 | 94,4 | 0 | 0,3 | 57 | 82 | 0 |
| 57 | C. Llollinco | 04-05-2026 14:00 | 12,2 | 94,7 | 0 | 0,1 | 43 | 75 | 0 |
| 56 | C. Llollinco | 04-05-2026 13:45 | 12,1 | 95,2 | 0 | 0,1 | 53 | 60 | 0 |
| 55 | C. Llollinco | 04-05-2026 13:30 | 12,2 | 95,4 | 0 | 0 | 73 | 83 | 0 |
| 54 | C. Llollinco | 04-05-2026 13:15 | 12 | 96 | 0 | 0,1 | 36 | 84 | 0 |
| 53 | C. Llollinco | 04-05-2026 13:00 | 11,7 | 96,6 | 0 | 0,2 | 41 | 63 | 0 |
| 52 | C. Llollinco | 04-05-2026 12:45 | 11,7 | 97,3 | 0 | 0,2 | 48 | 73 | 0 |
| 51 | C. Llollinco | 04-05-2026 12:30 | 11,6 | 97,7 | 0 | 0 | 68 | 67 | 0 |
| 50 | C. Llollinco | 04-05-2026 12:15 | 11,5 | 98,2 | 0 | 0,5 | 30 | 65 | 0 |
| 49 | C. Llollinco | 04-05-2026 12:00 | 11,5 | 97,8 | 0 | 0,3 | 38 | 77 | 0 |
| 48 | C. Llollinco | 04-05-2026 11:45 | 11,3 | 98,3 | 0 | 0 | 57 | 88 | 0 |
| 47 | C. Llollinco | 04-05-2026 11:30 | 11 | 98,4 | 0 | 0 | 43 | 84 | 0 |
| 46 | C. Llollinco | 04-05-2026 11:15 | 10,7 | 98,5 | 0 | 0,1 | 45 | 77 | 0 |
| 45 | C. Llollinco | 04-05-2026 11:00 | 10,6 | 98,4 | 0 | 0 | 8 | 49 | 0 |
| 44 | C. Llollinco | 04-05-2026 10:45 | 10,4 | 98,5 | 0 | 0 | 83 | 55 | 0 |
| 43 | C. Llollinco | 04-05-2026 10:30 | 10,2 | 98,7 | 0 | 0 | 154 | 54 | 0 |
| 42 | C. Llollinco | 04-05-2026 10:15 | 10,1 | 98,5 | 0 | 0 | 150 | 37 | 0 |
| 41 | C. Llollinco | 04-05-2026 10:00 | 10,1 | 98,7 | 0 | 0,4 | 19 | 37 | 0 |
| 40 | C. Llollinco | 04-05-2026 09:45 | 10 | 98,5 | 0 | 0 | 24 | 31 | 0 |
| 39 | C. Llollinco | 04-05-2026 09:30 | 9,9 | 98,5 | 0 | 0 | 0 | 32 | 0 |
| 38 | C. Llollinco | 04-05-2026 09:15 | 9,8 | 98,6 | 0 | 0 | 0 | 20 | 0 |
| 37 | C. Llollinco | 04-05-2026 09:00 | 9,8 | 98,6 | 0 | 0 | 0 | 10 | 0 |
| 36 | C. Llollinco | 04-05-2026 08:45 | 9,7 | 98,5 | 0 | 0 | 0 | 10 | 0 |
| 35 | C. Llollinco | 04-05-2026 08:30 | 9,7 | 98,5 | 0 | 0 | 0 | 10 | 0 |
| 34 | C. Llollinco | 04-05-2026 08:15 | 9,6 | 98,5 | 0 | 0 | 0 | 9 | 0 |
| 33 | C. Llollinco | 04-05-2026 08:00 | 9,6 | 98,5 | 0 | 0 | 0 | 4 | 0 |
| 32 | C. Llollinco | 04-05-2026 07:45 | 9,6 | 98,5 | 0 | 0 | 0 | 1 | 0 |
| 31 | C. Llollinco | 04-05-2026 07:30 | 9,5 | 98,6 | 0 | 0 | 0 | 0 | 0 |
| 30 | C. Llollinco | 04-05-2026 07:15 | 9,6 | 98,5 | 0 | 0 | 0 | 0 | 0 |
| 29 | C. Llollinco | 04-05-2026 07:00 | 9,5 | 98,4 | 0,1 | 0 | 0 | 0 | 0 |
| 28 | C. Llollinco | 04-05-2026 06:45 | 9,5 | 98,5 | 0,1 | 0 | 214 | 0 | 0 |
| 27 | C. Llollinco | 04-05-2026 06:30 | 9,5 | 98,5 | 0,1 | 0 | 0 | 0 | 0 |
| 26 | C. Llollinco | 04-05-2026 06:15 | 9,5 | 98,4 | 0,9 | 0 | 0 | 0 | 0 |
| 25 | C. Llollinco | 04-05-2026 06:00 | 9,5 | 98,5 | 0,1 | 0 | 206 | 0 | 0 |
| 24 | C. Llollinco | 04-05-2026 05:45 | 9,5 | 98,4 | 0 | 0 | 0 | 0 | 0 |
| 23 | C. Llollinco | 04-05-2026 05:30 | 9,5 | 98,4 | 0,1 | 0 | 0 | 0 | 0 |
| 22 | C. Llollinco | 04-05-2026 05:15 | 9,5 | 98,4 | 0 | 0 | 0 | 0 | 0 |
| 21 | C. Llollinco | 04-05-2026 05:00 | 9,4 | 98,4 | 0 | 0 | 0 | 0 | 0 |
| 20 | C. Llollinco | 04-05-2026 04:45 | 9,4 | 98,4 | 0 | 0 | 0 | 0 | 0 |
| 19 | C. Llollinco | 04-05-2026 04:30 | 9,3 | 98,4 | 0 | 0 | 0 | 0 | 0 |
| 18 | C. Llollinco | 04-05-2026 04:15 | 9,3 | 98,4 | 0 | 0 | 0 | 0 | 0 |
| 17 | C. Llollinco | 04-05-2026 04:00 | 9,3 | 98,4 | 0 | 0 | 0 | 0 | 0 |
| 16 | C. Llollinco | 04-05-2026 03:45 | 9,3 | 98,4 | 0 | 0 | 190 | 0 | 0 |
| 15 | C. Llollinco | 04-05-2026 03:30 | 9,2 | 98,4 | 0 | 0 | 172 | 0 | 0 |
| 14 | C. Llollinco | 04-05-2026 03:15 | 9,2 | 98,4 | 0 | 0,1 | 185 | 0 | 0 |
| 13 | C. Llollinco | 04-05-2026 03:00 | 9,1 | 98,3 | 0 | 0 | 0 | 0 | 0 |
| 12 | C. Llollinco | 04-05-2026 02:45 | 9,2 | 98,4 | 0 | 0 | 57 | 0 | 0 |
| 11 | C. Llollinco | 04-05-2026 02:30 | 9,2 | 98,4 | 0 | 0 | 0 | 0 | 0 |
| 10 | C. Llollinco | 04-05-2026 02:15 | 9,2 | 98,3 | 0 | 0 | 0 | 0 | 0 |
| 9 | C. Llollinco | 04-05-2026 02:00 | 9,2 | 98,3 | 0 | 0 | 0 | 0 | 0 |
| 8 | C. Llollinco | 04-05-2026 01:45 | 9,2 | 98,3 | 0 | 0 | 0 | 0 | 0 |
| 7 | C. Llollinco | 04-05-2026 01:30 | 9,3 | 98,4 | 0 | 0 | 217 | 0 | 0 |
| 6 | C. Llollinco | 04-05-2026 01:15 | 9,3 | 98,3 | 0 | 0 | 199 | 0 | 0 |
| 5 | C. Llollinco | 04-05-2026 01:00 | 9,4 | 98,3 | 0 | 0 | 0 | 0 | 0 |
| 4 | C. Llollinco | 04-05-2026 00:45 | 9,4 | 98,4 | 0 | 0,2 | 227 | 0 | 0 |
| 3 | C. Llollinco | 04-05-2026 00:30 | 9,4 | 98,3 | 0 | 0,1 | 210 | 0 | 0 |
| 2 | C. Llollinco | 04-05-2026 00:15 | 9,5 | 98,3 | 0 | 0 | 0 | 0 | 0 |
| 1 | C. Llollinco | 04-05-2026 00:00 | 9,5 | 98,2 | 0 | 0 | 0 | 0 | 0 |